Location: Podia
(1.5569°N, 32.3469°E)
Time: 20:45:10
(UTC+00:00)

S-56A Canister/Altair - Pass Details

Date: 30 September 2020
Orbit: 632 x 2500 km, 38.9° (Epoch: 20 October)

Event Time Altitude Azimuth Distance (km) Brightness Sun altitude
Rises 18:40:44 0° 325° (NW) 5,075 12.0 -45.1°
Reaches altitude 10° 18:45:03 10° 334° (NNW) 3,746 11.2 -46.2°
Enters shadow 18:46:40 15° 340° (NNW) 3,263 10.8 -46.6°
